Weather History for Bonilla Island, BC

Change the Weather History Date:

Friday, February 15, 2013

  Actual Average Record
Temperature  
Mean Temperature 44 °F -  
Max Temperature 47 °F - - ()
Min Temperature 42 °F - - ()
Degree Days  
Heating Degree Days 20    
Moisture  
Dew Point 44 °F    
Average Humidity 91    
Maximum Humidity 97    
Minimum Humidity 80    
Precipitation  
Precipitation 0.16 in - - ()
Sea Level Pressure  
Sea Level Pressure 30.09 in    
Wind  
Wind Speed 27 mph ()    
Max Wind Speed 39 mph    
Max Gust Speed 46 mph    
T = Trace of Precipitation, MM = Missing Value Source: Averaged Metar Reports

Daily Weather History Graph

Daily Weather History Graph

Search for Another Location

Airport:

Trip Planner

Search our weather history database for the weather conditions in past years. The results will help you decide how hot, cold, wet, or windy it might be!

Date:

Astronomy

Feb. 15, 2013 Rise Set
Actual Time 8:00 AM PST 5:53 PM PST
Civil Twilight 7:23 AM PST 6:30 PM PST
Nautical Twilight 6:43 AM PST 7:11 PM PST
Astronomical Twilight 6:02 AM PST 7:51 PM PST
Moon 9:43 AM PST (2/15) No Moon Set
Length of Visible Light 11h 06m
Length of Day
9h 53m
Waxing Crescent, 31% of the Moon is Illuminated
Feb 15
Waxing Crescent
Feb 17
First Quarter
Feb 25
Full
Mar 4
Last Quarter
Mar 11
New

Hourly Weather History & Observations

Time (PST) Temp. Windchill Dew Point Humidity Pressure Visibility Wind Dir Wind Speed Gust Speed Precip Events Conditions
12:00 AM 46.2 °F 36.9 °F 45.3 °F 97% 30.25 in - SSE 29.9 mph - N/A   Unknown
1:00 AM 46.2 °F 36.8 °F 45.3 °F 97% 30.25 in - SSE 31.1 mph - N/A   Unknown
2:00 AM 46.2 °F 37.1 °F 45.0 °F 95% 30.23 in - South 28.8 mph 35.7 mph N/A   Unknown
3:00 AM 46.2 °F 37.5 °F 44.8 °F 95% 30.23 in - South 26.5 mph - N/A   Unknown
4:00 AM 46 °F - 45 °F 93% 30.22 in - South 26.5 mph - -  
4:00 AM 46.0 °F 37.2 °F 44.6 °F 95% 30.22 in - South 26.5 mph - N/A   Unknown
5:00 AM 46.2 °F 37.3 °F 44.6 °F 94% 30.20 in - South 27.6 mph - N/A   Unknown
6:00 AM 46.2 °F 37.9 °F 44.6 °F 94% 30.19 in - South 24.2 mph - N/A   Unknown
7:00 AM 46.4 °F 37.7 °F 44.1 °F 92% 30.18 in - South 26.5 mph - N/A   Unknown
8:00 AM 46.9 °F - 43.5 °F 88% 30.16 in - South 25.3 mph 31.1 mph N/A   Unknown
9:00 AM 47.3 °F - 42.1 °F 82% 30.14 in - South 33.4 mph 41.4 mph N/A   Unknown
10:00 AM 47 °F - 43 °F 80% 30.11 in - South 33.4 mph - -  
10:00 AM 47.1 °F - 42.8 °F 85% 30.11 in - South 33.4 mph 40.3 mph N/A   Unknown
11:00 AM 46.8 °F - 43.5 °F 88% 30.11 in - South 32.2 mph 38.0 mph N/A   Unknown
12:00 PM 46.6 °F - 43.5 °F 89% 30.08 in - South 36.8 mph 42.6 mph N/A   Unknown
1:00 PM 46.8 °F - 43.7 °F 89% 30.06 in - South 35.7 mph 43.7 mph N/A   Unknown
2:00 PM 46.6 °F - 43.5 °F 89% 30.04 in - South 39.1 mph 46.0 mph N/A   Unknown
3:00 PM 46.4 °F 36.3 °F 43.2 °F 88% 30.03 in - South 36.8 mph 44.9 mph N/A   Unknown
4:00 PM 46 °F - 43 °F 85% 30.01 in - South 35.7 mph - -  
4:00 PM 46.4 °F 36.4 °F 43.0 °F 88% 30.01 in - South 35.7 mph - N/A   Unknown
5:00 PM 45.9 °F 36.3 °F 43.0 °F 90% 30.01 in - South 31.1 mph 39.1 mph N/A   Unknown
6:00 PM 45.5 °F 36.1 °F 43.2 °F 92% 29.99 in - South 28.8 mph 35.7 mph N/A   Unknown
7:00 PM 45.1 °F 35.0 °F 43.2 °F 93% 29.97 in - South 33.4 mph 40.3 mph 0.05 in   Unknown
8:00 PM 44.8 °F 34.3 °F 42.8 °F 93% 29.96 in - South 34.5 mph - 0.05 in   Unknown
9:00 PM 45.0 °F 35.1 °F 43.0 °F 93% 29.94 in - South 31.1 mph 36.8 mph 0.03 in   Unknown
10:00 PM 45 °F - 43 °F 90% 29.94 in - South 25.3 mph - -  
10:00 PM 44.8 °F 35.7 °F 43.0 °F 93% 29.94 in - South 25.3 mph 33.4 mph 0.03 in   Unknown
11:00 PM 44.8 °F 35.2 °F 43.0 °F 93% 29.93 in - South 28.8 mph - 0.03 in   Unknown